Weather History for Del Bajio, Mexico

Change the Weather History Date:

Friday, November 15, 2013

  Actual Average Record
Temperature  
Mean Temperature 64 °F -  
Max Temperature 78 °F 77 °F 84 °F (2005)
Min Temperature 51 °F 46 °F 41 °F (1996)
Growing Degree Days 14 (Base 50)    
Moisture  
Dew Point 50 °F    
Average Humidity 64    
Maximum Humidity 94    
Minimum Humidity 32    
Precipitation  
Precipitation 0.00 in - - ()
Sea Level Pressure  
Sea Level Pressure 30.10 in    
Wind  
Wind Speed 2 mph ()    
Max Wind Speed 6 mph    
Max Gust Speed -    
Visibility 8.7 miles    
Events      
Averages and records for this station are not official NWS values.
T = Trace of Precipitation, MM = Missing Value Source: Averaged Metar Reports

Daily Weather History Graph

Daily Weather History Graph

Search for Another Location

Airport:

Trip Planner

Search our weather history database for the weather conditions in past years. The results will help you decide how hot, cold, wet, or windy it might be!

Date:

Astronomy

Nov. 15, 2013 Rise Set
Actual Time 6:56 AM CST 6:04 PM CST
Civil Twilight 6:33 AM CST 6:27 PM CST
Nautical Twilight 6:06 AM CST 6:54 PM CST
Astronomical Twilight 5:39 AM CST 7:21 PM CST
Moon 4:52 PM CST (11/15) 5:07 AM CST (11/15)
Length of Visible Light 11h 54m
Length of Day
11h 08m
Waxing Gibbous, 96% of the Moon is Illuminated
Nov 15
Waxing Gibbous
Nov 17
Full
Nov 25
Last Quarter
Dec 2
New
Dec 9
First Quarter

Hourly Weather History & Observations

Time (CST) Temp. Dew Point Humidity Pressure Visibility Wind Dir Wind Speed Gust Speed Precip Events Conditions
12:42 AM 55.4 °F 48.2 °F 77% 30.24 in 8.0 mi North 4.6 mph - N/A   Mostly Cloudy
1:46 AM 55.4 °F 50.0 °F 82% 30.21 in 8.0 mi NNE 5.8 mph - N/A   Mostly Cloudy
2:43 AM 55.4 °F 50.0 °F 82% 29.91 in 8.0 mi Calm Calm - N/A   Mostly Cloudy
3:44 AM 55.4 °F 50.0 °F 82% 30.21 in 6.0 mi Calm Calm - N/A   Mostly Cloudy
4:47 AM 55.4 °F 50.0 °F 82% 30.21 in 7.0 mi Calm Calm - N/A   Mostly Cloudy
5:42 AM 53.6 °F 50.0 °F 88% 29.95 in 7.0 mi Calm Calm - N/A   Mostly Cloudy
6:45 AM 51.8 °F 48.2 °F 88% 30.21 in 8.0 mi Calm Calm - N/A   Scattered Clouds
7:45 AM 53.6 °F 51.8 °F 94% 30.24 in 8.0 mi Calm Calm - N/A   Scattered Clouds
8:40 AM 62.6 °F 51.8 °F 68% 29.95 in 10.0 mi SSE 4.6 mph - N/A   Scattered Clouds
9:45 AM 69.8 °F 50.0 °F 49% 30.27 in 10.0 mi SSE 3.5 mph - N/A   Scattered Clouds
10:43 AM 75.2 °F 48.2 °F 38% 30.24 in 10.0 mi Calm Calm - N/A   Scattered Clouds
11:43 AM 78.8 °F 46.4 °F 32% 29.86 in 10.0 mi Calm Calm - N/A   Mostly Cloudy
12:47 PM 75.2 °F 46.4 °F 36% 30.21 in 10.0 mi Calm Calm - N/A   Overcast
1:46 PM 75.2 °F 48.2 °F 38% 30.18 in 10.0 mi Calm Calm - N/A   Overcast
2:45 PM 75.2 °F 48.2 °F 38% 29.76 in 10.0 mi WSW 4.6 mph - N/A   Overcast
3:45 PM 73.4 °F 48.2 °F 41% 30.12 in 10.0 mi Calm Calm - N/A   Overcast
4:40 PM 73.4 °F 48.2 °F 41% 30.12 in 10.0 mi West 4.6 mph - N/A   Mostly Cloudy
5:44 PM 69.8 °F 50.0 °F 49% 29.79 in 10.0 mi West 3.5 mph - N/A   Overcast
6:49 PM 66.2 °F 51.8 °F 60% 30.15 in 8.0 mi WSW 4.6 mph - N/A   Mostly Cloudy
7:49 PM 64.4 °F 53.6 °F 68% 30.18 in 8.0 mi WSW 4.6 mph - N/A   Mostly Cloudy
8:44 PM 60.8 °F 53.6 °F 77% 29.86 in 8.0 mi Calm Calm - N/A   Mostly Cloudy
9:44 PM 60.8 °F 53.6 °F 77% 30.21 in 8.0 mi Calm Calm - N/A   Mostly Cloudy
10:40 PM 57.2 °F 53.6 °F 88% 30.21 in 8.0 mi Calm Calm - N/A   Mostly Cloudy